Regional Weather Roundup
Issued by NWS New Orleans/Baton Rouge, LA

Home | Current Version | Previous Version | Text Only | Print | Product List | Glossary On
Versions: 1 2 3 4 5 6 7 8 9 10 11 12 13 14 15 16 17 18 19 20 21 22 23 24 25 26 27 28 29 30 31 32 33 34 35 36 37 38 39 40 41 42 43 44 45 46 47 48 49 50
000
ASUS44 KLIX 280910
RWRLIX
NEW ORLEANS REGIONAL WEATHER ROUNDUP
NATIONAL WEATHER SERVICE NEW ORLEANS LA
400 AM CDT MON JUL 28 2014

NOTE: "FAIR" INDICATES FEW OR NO CLOUDS BELOW 12,000 FEET WITH NO
      SIGNIFICANT WEATHER AND/OR OBSTRUCTIONS TO VISIBILITY.
      SKY/WX - SKY CONDITION AND SIGNIFICANT WEATHER.
      TMP - AIR TEMPERATURE.     DP    - DEWPOINT TEMPERATURE.
      RH  - RELATIVE HUMIDITY.   PRES  - PRESSURE.
      HI  - HEAT INDEX.          WCI   - WIND CHILL INDEX.

*  THESE STATIONS ARE NOT NWS OR FAA STATIONS AND ARE NOT UNDER
   NWS QUALITY CONTROL.

LAZ038-040-048-061>063-065>067-069-281000-
SOUTHEAST LOUISIANA

CITY           SKY/WX    TMP DP  RH WIND       PRES   REMARKS
N.O. AUDUBON     N/A     82  78  89 MISG        N/A
N.O. INTL ARPT PTCLDY    80  76  87 W8        30.03R
N.O. LAKEFRONT CLEAR     83  77  82 W15       30.03S
N.O. DOWNTOWN*   N/A     82  73  74 SW3       30.03S
SLIDELL        CLEAR     82  76  81 VRB3      30.01S
BATON ROUGE    CLEAR     78  75  90 W6        30.04R
BOOTHVILLE     PTCLDY    83  77  82 W10       30.04S
BELLE CHASSE   CLEAR     81  75  82 W6        30.02S
BOGALUSA*        N/A     79  75  86 W6        30.04R
GALLIANO*      NOT AVBL
NEW ROADS*       N/A     77  75  92 CALM      30.04R
GONZALES*        N/A     78  78  99 CALM      30.03R
HAMMOND*       CLEAR     81  73  78 W5        30.05R
HOUMA*         CLEAR     79  74  83 CALM      30.04S
PORT FOURCHON* MOSUNNY   84  77  79 W10       30.06S

$$

MSZ070-080>082-281000-
SOUTHERN MISSISSIPPI

CITY           SKY/WX    TMP DP  RH WIND       PRES   REMARKS
MCCOMB         CLEAR     78  75  90 W8        30.04R
GULFPORT       CLEAR     83  77  82 W8        30.00S
BILOXI         CLEAR     81  78  88 VRB3      30.01R
PASCAGOULA     CLEAR     79  76  90 CALM      30.01R

$$

COASTAL OBSERVATIONS
LAKE AND NEARSHORE STATIONS

STATION/POSITION TIME  TEMP    WIND        PRES    WAVE
                       AIR SEA DIR/SP/G            HT/PER
                 (UTC) (F)     (DEG/KT/KT) (MB)    (FT/S)
PASCAGOULA       0900   84     270/ 10/ 15 1015.5
WAVELAND YACHT   0900   81     280/  6/  9 1015.6
GRAND ISLE       0900   84 86  260/  9/ 12 1017.8
SOUTHWEST PASS   0900   84 84  270/ 15/ 19 1017.8
NEW CANAL        0900   82 84  250/  5/  8 1017.1
SHELL BEACH      0900   81 82  250/  6/  8 1016.5

OFFSHORE STATIONS

STATION/POSITION TIME  TEMP    WIND        PRES    WAVE
                       AIR SEA DIR/SP/G            HT/PER
                 (UTC) (F)     (DEG/KT/KT) (MB)    (FT/S)
64 S DAUPHIN ISL 0811   85 85  260/ 17/ 19 1016.8

$$



USA.gov is the U.S. government's official web portal to all federal, state and local government web resources and services.